Location: Unspecified
(42.7170°S, 0.0000°E)
Time: 02:36:17
(UTC+00:00)

N. Korean satellite - Pass Details

Date: 31 May 2019
Orbit: 455 x 510 km, 97.2° (Epoch: 17 June)

Event Time Altitude Azimuth Distance (km) Brightness Sun altitude
Exits shadow 18:33:02 13° 183° (S) 1,570 9.0 -21.0°
Maximum altitude 18:36:11 45° 253° (WSW) 715 7.7 -21.6°
Drops below altitude 10° 18:39:47 10° 326° (NNW) 1,741 9.9 -22.2°
Sets 18:41:55 0° 332° (NNW) 2,620 10.8 -22.6°
